Time,TemperatureF,DewpointF,PressureIn,WindDirection,WindDirectionDegrees,WindSpeedMPH,WindSpeedGustMPH,Humidity,HourlyPrecipIn,Conditions,Clouds,dailyrainin,SoftwareType,DateUTC
2013-01-28 00:00:00,20.7,16.9,30.37,ESE,122,0.0,4.0,85,0.00,,,0.02,Wunderground v.1.15,2013-01-28 05:00:00,
2013-01-28 00:05:00,20.9,17.4,30.37,ESE,122,0.0,4.0,86,0.00,,,0.02,Wunderground v.1.15,2013-01-28 05:05:00,
2013-01-28 00:10:00,21.1,17.8,30.37,ESE,122,0.0,4.0,87,0.00,,,0.02,Wunderground v.1.15,2013-01-28 05:10:00,
2013-01-28 00:20:00,21.5,18.0,30.36,ESE,122,0.0,4.0,86,0.00,,,0.02,Wunderground v.1.15,2013-01-28 05:20:00,
2013-01-28 00:25:00,21.5,18.0,30.35,ESE,122,0.0,4.0,86,0.00,,,0.02,Wunderground v.1.15,2013-01-28 05:25:00,
2013-01-28 00:35:00,21.2,17.7,30.35,ESE,122,0.0,4.0,86,0.00,,,0.02,Wunderground v.1.15,2013-01-28 05:35:00,
2013-01-28 00:40:00,21.1,17.6,30.35,SE,138,0.0,4.0,86,0.00,,,0.02,Wunderground v.1.15,2013-01-28 05:40:00,
2013-01-28 00:45:00,21.2,17.7,30.34,SE,138,0.0,4.0,86,0.00,,,0.02,Wunderground v.1.15,2013-01-28 05:45:00,
2013-01-28 00:50:00,21.1,17.3,30.34,SE,138,0.0,4.0,85,0.00,,,0.02,Wunderground v.1.15,2013-01-28 05:50:00,
2013-01-28 00:55:00,21.2,17.4,30.34,SE,138,0.0,4.0,85,0.00,,,0.02,Wunderground v.1.15,2013-01-28 05:55:00,
2013-01-28 01:00:00,21.9,17.8,30.34,SE,133,0.0,4.0,84,0.00,,,0.02,Wunderground v.1.15,2013-01-28 06:00:00,
2013-01-28 01:10:00,23.0,18.0,30.33,SW,217,0.0,4.0,81,0.00,,,0.02,Wunderground v.1.15,2013-01-28 06:10:00,
2013-01-28 01:15:00,24.5,17.4,30.33,South,189,0.0,4.0,74,0.00,,,0.02,Wunderground v.1.15,2013-01-28 06:15:00,
2013-01-28 01:20:00,26.0,17.9,30.33,SSW,200,1.0,4.0,71,0.00,,,0.02,Wunderground v.1.15,2013-01-28 06:20:00,
2013-01-28 01:25:00,27.1,17.6,30.33,SSW,202,2.0,4.0,67,0.00,,,0.02,Wunderground v.1.15,2013-01-28 06:25:00,
2013-01-28 01:30:00,27.6,17.4,30.33,SW,219,2.0,4.0,65,0.00,,,0.02,Wunderground v.1.15,2013-01-28 06:30:00,
2013-01-28 01:35:00,27.9,17.3,30.33,SW,225,1.0,4.0,64,0.00,,,0.00,Wunderground v.1.15,2013-01-28 06:35:00,
2013-01-28 01:40:00,28.1,17.1,30.33,SSW,213,1.0,1.0,63,0.00,,,0.00,Wunderground v.1.15,2013-01-28 06:40:00,
2013-01-28 01:50:00,27.4,17.5,30.32,South,174,0.0,4.0,66,0.00,,,0.00,Wunderground v.1.15,2013-01-28 06:50:00,
2013-01-28 01:55:00,27.4,17.5,30.33,South,174,1.0,4.0,66,0.00,,,0.00,Wunderground v.1.15,2013-01-28 06:55:00,
2013-01-28 02:00:00,27.6,17.7,30.32,South,186,0.0,4.0,66,0.00,,,0.00,Wunderground v.1.15,2013-01-28 07:00:00,
2013-01-28 02:05:00,27.8,17.6,30.32,SSE,161,0.0,4.0,65,0.00,,,0.00,Wunderground v.1.15,2013-01-28 07:05:00,
2013-01-28 02:10:00,27.9,17.6,30.32,South,186,0.0,4.0,65,0.00,,,0.00,Wunderground v.1.15,2013-01-28 07:10:00,
2013-01-28 02:20:00,27.9,17.6,30.32,SSE,165,0.0,4.0,65,0.00,,,0.00,Wunderground v.1.15,2013-01-28 07:20:00,
2013-01-28 02:25:00,27.9,17.6,30.31,SSW,194,0.0,4.0,65,0.00,,,0.00,Wunderground v.1.15,2013-01-28 07:25:00,
2013-01-28 02:30:00,28.3,17.3,30.32,SW,232,1.0,4.0,63,0.00,,,0.00,Wunderground v.1.15,2013-01-28 07:30:00,
2013-01-28 02:35:00,28.8,17.4,30.32,SSW,198,2.0,4.0,62,0.00,,,0.00,Wunderground v.1.15,2013-01-28 07:35:00,
2013-01-28 02:40:00,28.9,17.1,30.31,SSW,201,2.0,2.0,61,0.00,,,0.00,Wunderground v.1.15,2013-01-28 07:40:00,
2013-01-28 02:45:00,29.0,17.2,30.31,SW,234,2.0,5.0,61,0.00,,,0.00,Wunderground v.1.15,2013-01-28 07:45:00,
2013-01-28 02:55:00,29.1,17.3,30.30,SSE,167,2.0,5.0,61,0.00,,,0.00,Wunderground v.1.15,2013-01-28 07:55:00,
2013-01-28 03:00:00,29.1,16.9,30.30,South,182,2.0,2.0,60,0.00,,,0.00,Wunderground v.1.15,2013-01-28 08:00:00,
2013-01-28 03:05:00,29.2,17.4,30.30,SSW,202,1.0,4.0,61,0.00,,,0.00,Wunderground v.1.15,2013-01-28 08:05:00,
2013-01-28 03:10:00,29.2,17.4,30.29,SSW,211,2.0,4.0,61,0.00,,,0.00,Wunderground v.1.15,2013-01-28 08:10:00,
2013-01-28 03:15:00,29.3,17.1,30.29,SSW,205,2.0,5.0,60,0.00,,,0.00,Wunderground v.1.15,2013-01-28 08:15:00,
2013-01-28 03:25:00,29.6,17.0,30.28,SW,229,3.0,5.0,59,0.00,,,0.00,Wunderground v.1.15,2013-01-28 08:25:00,
2013-01-28 03:30:00,29.7,16.7,30.27,SW,215,3.0,6.0,58,0.00,,,0.00,Wunderground v.1.15,2013-01-28 08:30:00,
2013-01-28 03:35:00,29.9,16.9,30.27,SSW,209,4.0,6.0,58,0.00,,,0.00,Wunderground v.1.15,2013-01-28 08:35:00,
2013-01-28 03:45:00,30.1,16.7,30.26,SSW,198,7.0,7.0,57,0.00,,,0.00,Wunderground v.1.15,2013-01-28 08:45:00,
2013-01-28 03:50:00,30.1,17.5,30.26,WSW,242,4.0,5.0,59,0.00,,,0.00,Wunderground v.1.15,2013-01-28 08:50:00,
2013-01-28 03:55:00,30.0,18.2,30.27,West,278,4.0,5.0,61,0.00,,,0.00,Wunderground v.1.15,2013-01-28 08:55:00,
2013-01-28 04:00:00,30.1,19.0,30.27,SW,227,3.0,3.0,63,0.00,,,0.00,Wunderground v.1.15,2013-01-28 09:00:00,
2013-01-28 04:05:00,30.0,19.7,30.27,WSW,256,3.0,4.0,65,0.00,,,0.00,Wunderground v.1.15,2013-01-28 09:05:00,
2013-01-28 04:10:00,30.0,20.7,30.26,WSW,243,2.0,7.0,68,0.00,,,0.00,Wunderground v.1.15,2013-01-28 09:10:00,
2013-01-28 04:15:00,29.9,21.6,30.26,SW,235,4.0,7.0,71,0.00,,,0.00,Wunderground v.1.15,2013-01-28 09:15:00,
2013-01-28 04:25:00,29.8,23.2,30.26,WSW,252,4.0,5.0,76,0.00,,,0.00,Wunderground v.1.15,2013-01-28 09:25:00,
2013-01-28 04:30:00,29.7,23.7,30.25,SSW,211,5.0,5.0,78,0.00,,,0.00,Wunderground v.1.15,2013-01-28 09:30:00,
2013-01-28 04:35:00,29.6,23.9,30.25,SW,226,6.0,6.0,79,0.00,,,0.00,Wunderground v.1.15,2013-01-28 09:35:00,
2013-01-28 04:40:00,29.6,24.5,30.25,SSW,206,4.0,4.0,81,0.00,,,0.00,Wunderground v.1.15,2013-01-28 09:40:00,
2013-01-28 04:50:00,29.4,24.9,30.25,SSW,211,2.0,4.0,83,0.00,,,0.00,Wunderground v.1.15,2013-01-28 09:50:00,
2013-01-28 04:55:00,29.2,25.3,30.25,SSW,194,1.0,4.0,85,0.00,,,0.00,Wunderground v.1.15,2013-01-28 09:55:00,
2013-01-28 05:00:00,28.9,25.5,30.25,SSW,204,1.0,1.0,87,0.00,,,0.00,Wunderground v.1.15,2013-01-28 10:00:00,
2013-01-28 05:05:00,28.8,25.7,30.24,SSW,204,1.0,4.0,88,0.00,,,0.00,Wunderground v.1.15,2013-01-28 10:05:00,
2013-01-28 05:10:00,28.7,25.9,30.24,SSW,204,0.0,4.0,89,0.00,,,0.00,Wunderground v.1.15,2013-01-28 10:10:00,
2013-01-28 05:15:00,28.7,25.9,30.23,SSW,204,0.0,4.0,89,0.00,,,0.00,Wunderground v.1.15,2013-01-28 10:15:00,
2013-01-28 05:25:00,28.7,26.1,30.22,SSW,194,0.0,4.0,90,0.00,,,0.00,Wunderground v.1.15,2013-01-28 10:25:00,
2013-01-28 05:30:00,28.6,26.0,30.22,SSW,194,0.0,4.0,90,0.00,,,0.00,Wunderground v.1.15,2013-01-28 10:30:00,
2013-01-28 05:35:00,28.2,25.6,30.21,West,267,1.0,4.0,90,0.00,,,0.00,Wunderground v.1.15,2013-01-28 10:35:00,
2013-01-28 05:40:00,28.0,25.7,30.21,West,267,1.0,4.0,91,0.00,,,0.00,Wunderground v.1.15,2013-01-28 10:40:00,
2013-01-28 05:45:00,28.0,26.0,30.21,West,267,1.0,4.0,92,0.00,,,0.00,Wunderground v.1.15,2013-01-28 10:45:00,
2013-01-28 05:50:00,28.1,26.3,30.20,West,267,0.0,4.0,93,0.00,,,0.00,Wunderground v.1.15,2013-01-28 10:50:00,
2013-01-28 05:55:00,28.2,26.4,30.20,SSW,200,0.0,4.0,93,0.00,,,0.00,Wunderground v.1.15,2013-01-28 10:55:00,
2013-01-28 06:05:00,28.3,26.3,30.19,SSW,200,1.0,4.0,92,0.00,,,0.00,Wunderground v.1.15,2013-01-28 11:05:00,
2013-01-28 06:10:00,28.2,26.4,30.19,SE,132,0.0,4.0,93,0.00,,,0.00,Wunderground v.1.15,2013-01-28 11:10:00,
2013-01-28 06:15:00,28.1,26.1,30.18,South,183,1.0,4.0,92,0.00,,,0.00,Wunderground v.1.15,2013-01-28 11:15:00,
2013-01-28 06:20:00,27.9,25.9,30.19,SSW,202,2.0,5.0,92,0.00,,,0.00,Wunderground v.1.15,2013-01-28 11:20:00,
2013-01-28 06:25:00,27.8,25.8,30.18,SSW,208,4.0,7.0,92,0.00,,,0.00,Wunderground v.1.15,2013-01-28 11:25:00,
2013-01-28 06:30:00,27.7,25.9,30.18,SSW,209,3.0,3.0,93,0.00,,,0.00,Wunderground v.1.15,2013-01-28 11:30:00,
2013-01-28 06:40:00,27.8,26.0,30.17,SSW,213,2.0,2.0,93,0.00,,,0.00,Wunderground v.1.15,2013-01-28 11:40:00,
2013-01-28 06:45:00,27.9,26.1,30.17,SSE,157,3.0,3.0,93,0.00,,,0.00,Wunderground v.1.15,2013-01-28 11:45:00,
2013-01-28 06:50:00,28.0,26.0,30.16,SSE,149,3.0,4.0,92,0.00,,,0.00,Wunderground v.1.15,2013-01-28 11:50:00,
2013-01-28 06:55:00,28.1,26.1,30.16,SSE,167,2.0,4.0,92,0.00,,,0.00,Wunderground v.1.15,2013-01-28 11:55:00,
2013-01-28 07:00:00,28.2,26.2,30.15,SSW,196,2.0,4.0,92,0.00,,,0.00,Wunderground v.1.15,2013-01-28 12:00:00,
2013-01-28 07:10:00,28.8,26.8,30.14,ESE,116,2.0,4.0,92,0.00,,,0.00,Wunderground v.1.15,2013-01-28 12:10:00,
2013-01-28 07:15:00,29.2,27.2,30.13,WSW,245,3.0,6.0,92,0.00,,,0.00,Wunderground v.1.15,2013-01-28 12:15:00,
2013-01-28 07:20:00,29.5,27.7,30.13,SE,143,4.0,7.0,93,0.00,,,0.00,Wunderground v.1.15,2013-01-28 12:20:00,
2013-01-28 07:25:00,29.7,27.7,30.12,ESE,115,5.0,7.0,92,0.00,,,0.00,Wunderground v.1.15,2013-01-28 12:25:00,
2013-01-28 07:30:00,29.9,28.1,30.13,SSW,200,5.0,5.0,93,0.00,,,0.00,Wunderground v.1.15,2013-01-28 12:30:00,
2013-01-28 07:40:00,30.2,28.4,30.12,South,180,4.0,4.0,93,0.00,,,0.00,Wunderground v.1.15,2013-01-28 12:40:00,
2013-01-28 07:45:00,30.4,28.6,30.11,SSE,168,4.0,4.0,93,0.00,,,0.00,Wunderground v.1.15,2013-01-28 12:45:00,
2013-01-28 07:50:00,30.6,28.8,30.11,SSW,200,3.0,4.0,93,0.00,,,0.00,Wunderground v.1.15,2013-01-28 12:50:00,
2013-01-28 07:55:00,30.8,29.0,30.11,SSW,205,2.0,4.0,93,0.00,,,0.00,Wunderground v.1.15,2013-01-28 12:55:00,
2013-01-28 08:00:00,31.0,29.2,30.11,South,185,2.0,4.0,93,0.00,,,0.00,Wunderground v.1.15,2013-01-28 13:00:00,
2013-01-28 08:05:00,31.3,29.2,30.10,SW,221,4.0,5.0,92,0.00,,,0.00,Wunderground v.1.15,2013-01-28 13:05:00,
2013-01-28 08:10:00,31.6,29.5,30.10,SW,217,5.0,9.0,92,0.00,,,0.00,Wunderground v.1.15,2013-01-28 13:10:00,
2013-01-28 08:20:00,32.0,29.7,30.09,South,176,6.0,6.0,91,0.00,,,0.00,Wunderground v.1.15,2013-01-28 13:20:00,
2013-01-28 08:25:00,32.1,29.8,30.09,SW,219,6.0,6.0,91,0.00,,,0.00,Wunderground v.1.15,2013-01-28 13:25:00,
2013-01-28 08:30:00,32.3,29.7,30.08,SSW,212,6.0,10.0,90,0.00,,,0.00,Wunderground v.1.15,2013-01-28 13:30:00,
2013-01-28 08:35:00,32.5,30.2,30.09,South,191,7.0,10.0,91,0.00,,,0.00,Wunderground v.1.15,2013-01-28 13:35:00,
2013-01-28 08:40:00,32.5,30.2,30.08,SSW,202,6.0,6.0,91,0.00,,,0.00,Wunderground v.1.15,2013-01-28 13:40:00,
2013-01-28 08:45:00,32.7,30.4,30.08,South,178,5.0,6.0,91,0.00,,,0.00,Wunderground v.1.15,2013-01-28 13:45:00,
2013-01-28 08:50:00,32.8,30.5,30.07,South,181,6.0,6.0,91,0.00,,,0.00,Wunderground v.1.15,2013-01-28 13:50:00,
2013-01-28 09:00:00,33.1,30.8,30.07,SSW,207,5.0,7.0,91,0.00,,,0.00,Wunderground v.1.15,2013-01-28 14:00:00,
2013-01-28 09:05:00,33.2,30.9,30.07,SSW,208,5.0,8.0,91,0.00,,,0.00,Wunderground v.1.15,2013-01-28 14:05:00,
2013-01-28 09:10:00,33.4,31.1,30.07,SW,217,6.0,8.0,91,0.00,,,0.00,Wunderground v.1.15,2013-01-28 14:10:00,
2013-01-28 09:15:00,33.5,31.2,30.06,SW,217,5.0,8.0,91,0.00,,,0.00,Wunderground v.1.15,2013-01-28 14:15:00,
2013-01-28 09:20:00,33.6,31.3,30.06,SSE,151,4.0,4.0,91,0.00,,,0.00,Wunderground v.1.15,2013-01-28 14:20:00,
2013-01-28 09:25:00,33.7,31.4,30.05,SSE,163,3.0,4.0,91,0.00,,,0.00,Wunderground v.1.15,2013-01-28 14:25:00,
2013-01-28 09:35:00,33.8,31.5,30.04,SSW,211,2.0,5.0,91,0.00,,,0.00,Wunderground v.1.15,2013-01-28 14:35:00,
2013-01-28 09:40:00,34.0,31.6,30.04,SSE,162,3.0,3.0,91,0.00,,,0.00,Wunderground v.1.15,2013-01-28 14:40:00,
2013-01-28 09:45:00,34.1,31.7,30.03,ESE,123,3.0,8.0,91,0.00,,,0.00,Wunderground v.1.15,2013-01-28 14:45:00,
2013-01-28 09:50:00,34.2,31.8,30.02,SSW,200,2.0,7.0,91,0.00,,,0.00,Wunderground v.1.15,2013-01-28 14:50:00,
2013-01-28 09:55:00,34.3,31.9,30.03,SSW,206,4.0,7.0,91,0.00,,,0.00,Wunderground v.1.15,2013-01-28 14:55:00,
2013-01-28 10:00:00,34.4,32.0,30.02,SSW,209,5.0,6.0,91,0.00,,,0.00,Wunderground v.1.15,2013-01-28 15:00:00,
2013-01-28 10:05:00,34.6,32.2,30.02,South,174,5.0,7.0,91,0.00,,,0.00,Wunderground v.1.15,2013-01-28 15:05:00,
2013-01-28 10:15:00,35.0,32.4,30.01,SSW,205,5.0,6.0,90,0.00,,,0.00,Wunderground v.1.15,2013-01-28 15:15:00,
2013-01-28 10:20:00,35.1,32.5,30.01,SW,216,5.0,5.0,90,0.00,,,0.00,Wunderground v.1.15,2013-01-28 15:20:00,
2013-01-28 10:25:00,35.2,32.6,30.01,SSW,202,5.0,7.0,90,0.00,,,0.00,Wunderground v.1.15,2013-01-28 15:25:00,
2013-01-28 10:30:00,35.2,32.6,30.01,SSW,210,5.0,5.0,90,0.00,,,0.00,Wunderground v.1.15,2013-01-28 15:30:00,
2013-01-28 10:35:00,35.3,32.7,30.00,SW,223,5.0,5.0,90,0.00,,,0.00,Wunderground v.1.15,2013-01-28 15:35:00,
2013-01-28 10:40:00,35.4,32.8,30.00,SSW,194,3.0,4.0,90,0.00,,,0.00,Wunderground v.1.15,2013-01-28 15:40:00,
2013-01-28 10:45:00,35.6,33.0,30.00,SW,221,4.0,5.0,90,0.00,,,0.00,Wunderground v.1.15,2013-01-28 15:45:00,
2013-01-28 10:50:00,35.7,33.1,30.00,SW,214,5.0,5.0,90,0.00,,,0.00,Wunderground v.1.15,2013-01-28 15:50:00,
2013-01-28 11:00:00,36.1,33.5,30.00,SSW,212,7.0,7.0,90,0.00,,,0.00,Wunderground v.1.15,2013-01-28 16:00:00,
2013-01-28 11:05:00,36.3,33.6,29.99,SW,227,7.0,7.0,90,0.00,,,0.00,Wunderground v.1.15,2013-01-28 16:05:00,
2013-01-28 11:10:00,36.5,34.1,29.99,SSW,211,7.0,12.0,91,0.00,,,0.01,Wunderground v.1.15,2013-01-28 16:10:00,
2013-01-28 11:15:00,36.7,34.3,29.99,SW,218,9.0,12.0,91,0.10,,,0.02,Wunderground v.1.15,2013-01-28 16:15:00,
2013-01-28 11:24:00,37.2,34.8,29.99,SW,227,8.0,9.0,91,0.21,,,0.07,Wunderground v.1.15,2013-01-28 16:24:00,
2013-01-28 11:30:00,37.3,34.9,29.99,SSW,211,9.0,9.0,91,0.14,,,0.09,Wunderground v.1.15,2013-01-28 16:30:00,
2013-01-28 11:35:00,37.4,35.3,29.98,SSW,213,10.0,10.0,92,0.19,,,0.10,Wunderground v.1.15,2013-01-28 16:35:00,
2013-01-28 11:40:00,37.5,35.4,29.98,SSW,198,10.0,10.0,92,0.12,,,0.11,Wunderground v.1.15,2013-01-28 16:40:00,
2013-01-28 11:45:00,37.5,35.4,29.98,SSW,205,9.0,10.0,92,0.16,,,0.12,Wunderground v.1.15,2013-01-28 16:45:00,
2013-01-28 11:50:00,37.6,35.5,29.97,SSW,202,9.0,13.0,92,0.10,,,0.13,Wunderground v.1.15,2013-01-28 16:50:00,
2013-01-28 11:55:00,37.7,35.6,29.97,SE,142,10.0,13.0,92,0.15,,,0.14,Wunderground v.1.15,2013-01-28 16:55:00,
2013-01-28 12:00:00,37.7,35.6,29.97,SW,232,9.0,9.0,92,0.08,,,0.15,Wunderground v.1.15,2013-01-28 17:00:00,
2013-01-28 12:10:00,37.9,35.8,29.96,SW,229,8.0,12.0,92,0.10,,,0.16,Wunderground v.1.15,2013-01-28 17:10:00,
2013-01-28 12:15:00,38.0,35.9,29.96,SSW,211,9.0,21.0,92,0.06,,,0.16,Wunderground v.1.15,2013-01-28 17:15:00,
2013-01-28 12:20:00,38.2,35.8,29.95,SSW,202,9.0,9.0,91,0.04,,,0.17,Wunderground v.1.15,2013-01-28 17:20:00,
2013-01-28 12:25:00,38.5,36.1,29.95,SSW,205,8.0,11.0,91,0.04,,,0.17,Wunderground v.1.15,2013-01-28 17:25:00,
2013-01-28 12:30:00,38.7,36.0,29.94,SSW,211,8.0,9.0,90,0.06,,,0.18,Wunderground v.1.15,2013-01-28 17:30:00,
2013-01-28 12:35:00,38.9,36.2,29.94,West,267,9.0,9.0,90,0.06,,,0.18,Wunderground v.1.15,2013-01-28 17:35:00,
2013-01-28 12:40:00,38.9,36.2,29.93,SSW,207,8.0,9.0,90,0.06,,,0.18,Wunderground v.1.15,2013-01-28 17:40:00,
2013-01-28 12:50:00,39.0,36.3,29.94,SSW,195,8.0,11.0,90,0.00,,,0.18,Wunderground v.1.15,2013-01-28 17:50:00,
2013-01-28 12:55:00,39.0,36.3,29.94,WSW,252,8.0,11.0,90,0.00,,,0.18,Wunderground v.1.15,2013-01-28 17:55:00,
2013-01-28 13:00:00,39.0,36.6,29.93,SW,214,7.0,7.0,91,0.00,,,0.18,Wunderground v.1.15,2013-01-28 18:00:00,
2013-01-28 13:05:00,39.0,36.6,29.92,WSW,238,7.0,7.0,91,0.00,,,0.18,Wunderground v.1.15,2013-01-28 18:05:00,
2013-01-28 13:10:00,39.1,37.0,29.92,SW,229,8.0,8.0,92,0.00,,,0.19,Wunderground v.1.15,2013-01-28 18:10:00,
2013-01-28 13:15:00,39.2,37.1,29.92,SW,217,8.0,10.0,92,0.00,,,0.19,Wunderground v.1.15,2013-01-28 18:15:00,
2013-01-28 13:25:00,39.4,37.3,29.91,SW,229,8.0,11.0,92,0.00,,,0.19,Wunderground v.1.15,2013-01-28 18:25:00,
2013-01-28 13:30:00,39.6,37.5,29.91,SW,229,8.0,8.0,92,0.00,,,0.19,Wunderground v.1.15,2013-01-28 18:30:00,
2013-01-28 13:35:00,39.7,37.6,29.90,SSW,205,7.0,8.0,92,0.00,,,0.19,Wunderground v.1.15,2013-01-28 18:35:00,
2013-01-28 13:40:00,39.8,37.7,29.90,SW,227,7.0,11.0,92,0.00,,,0.19,Wunderground v.1.15,2013-01-28 18:40:00,
2013-01-28 13:45:00,40.0,37.9,29.90,SSW,202,7.0,11.0,92,0.00,,,0.19,Wunderground v.1.15,2013-01-28 18:45:00,
2013-01-28 13:50:00,40.1,37.7,29.89,SW,223,7.0,7.0,91,0.00,,,0.19,Wunderground v.1.15,2013-01-28 18:50:00,
2013-01-28 14:00:00,40.2,37.8,29.89,SSW,200,6.0,6.0,91,0.00,,,0.19,Wunderground v.1.15,2013-01-28 19:00:00,
2013-01-28 14:05:00,40.4,38.0,29.89,SSW,205,6.0,7.0,91,0.00,,,0.19,Wunderground v.1.15,2013-01-28 19:05:00,
2013-01-28 14:10:00,40.6,38.5,29.89,SW,217,6.0,8.0,92,0.00,,,0.19,Wunderground v.1.15,2013-01-28 19:10:00,
2013-01-28 14:15:00,40.8,38.7,29.89,SSW,213,7.0,8.0,92,0.00,,,0.19,Wunderground v.1.15,2013-01-28 19:15:00,
2013-01-28 14:20:00,40.8,38.7,29.88,SW,225,6.0,6.0,92,0.00,,,0.19,Wunderground v.1.15,2013-01-28 19:20:00,
2013-01-28 14:25:00,40.6,38.5,29.88,South,189,4.0,6.0,92,0.00,,,0.19,Wunderground v.1.15,2013-01-28 19:25:00,
2013-01-28 14:35:00,40.6,39.0,29.88,SSW,207,4.0,4.0,94,0.00,,,0.19,Wunderground v.1.15,2013-01-28 19:35:00,
2013-01-28 14:40:00,40.5,38.9,29.88,South,188,3.0,4.0,94,0.00,,,0.19,Wunderground v.1.15,2013-01-28 19:40:00,
2013-01-28 14:45:00,40.6,39.3,29.88,SSW,198,2.0,4.0,95,0.00,,,0.19,Wunderground v.1.15,2013-01-28 19:45:00,
2013-01-28 14:50:00,40.7,39.4,29.88,SW,227,2.0,5.0,95,0.00,,,0.19,Wunderground v.1.15,2013-01-28 19:50:00,
2013-01-28 14:55:00,41.0,39.9,29.87,SW,221,3.0,7.0,96,0.00,,,0.19,Wunderground v.1.15,2013-01-28 19:55:00,
2013-01-28 15:00:00,41.3,40.2,29.88,SSW,212,5.0,7.0,96,0.00,,,0.19,Wunderground v.1.15,2013-01-28 20:00:00,
2013-01-28 15:10:00,41.6,40.5,29.87,SSW,211,7.0,7.0,96,0.00,,,0.19,Wunderground v.1.15,2013-01-28 20:10:00,
2013-01-28 15:15:00,41.7,40.6,29.87,SW,219,6.0,9.0,96,0.00,,,0.19,Wunderground v.1.15,2013-01-28 20:15:00,
2013-01-28 15:20:00,41.9,40.8,29.87,SSW,205,5.0,6.0,96,0.00,,,0.19,Wunderground v.1.15,2013-01-28 20:20:00,
2013-01-28 15:25:00,42.1,40.8,29.87,SW,236,6.0,7.0,95,0.00,,,0.19,Wunderground v.1.15,2013-01-28 20:25:00,
2013-01-28 15:30:00,42.2,40.9,29.87,SSW,211,6.0,9.0,95,0.00,,,0.19,Wunderground v.1.15,2013-01-28 20:30:00,
2013-01-28 15:35:00,42.3,41.0,29.88,SW,227,6.0,9.0,95,0.00,,,0.19,Wunderground v.1.15,2013-01-28 20:35:00,
2013-01-28 15:40:00,42.4,41.1,29.87,SW,215,7.0,9.0,95,0.00,,,0.19,Wunderground v.1.15,2013-01-28 20:40:00,
2013-01-28 15:50:00,42.7,41.1,29.87,SW,217,8.0,8.0,94,0.00,,,0.19,Wunderground v.1.15,2013-01-28 20:50:00,
2013-01-28 15:55:00,42.8,41.5,29.87,SW,228,8.0,10.0,95,0.00,,,0.19,Wunderground v.1.15,2013-01-28 20:55:00,
2013-01-28 16:00:00,42.8,41.5,29.87,SW,222,7.0,7.0,95,0.00,,,0.19,Wunderground v.1.15,2013-01-28 21:00:00,
2013-01-28 16:05:00,42.8,41.2,29.87,SW,223,7.0,8.0,94,0.00,,,0.19,Wunderground v.1.15,2013-01-28 21:05:00,
2013-01-28 16:10:00,42.9,41.3,29.87,WSW,254,7.0,7.0,94,0.00,,,0.19,Wunderground v.1.15,2013-01-28 21:10:00,
2013-01-28 16:15:00,42.9,41.3,29.87,SW,219,7.0,11.0,94,0.00,,,0.19,Wunderground v.1.15,2013-01-28 21:15:00,
2013-01-28 16:20:00,42.9,41.3,29.87,WSW,256,7.0,10.0,94,0.00,,,0.19,Wunderground v.1.15,2013-01-28 21:20:00,
2013-01-28 16:30:00,42.8,41.5,29.87,WSW,237,7.0,8.0,95,0.00,,,0.20,Wunderground v.1.15,2013-01-28 21:30:00,
2013-01-28 16:35:00,42.8,41.5,29.87,SW,220,8.0,12.0,95,0.00,,,0.20,Wunderground v.1.15,2013-01-28 21:35:00,
2013-01-28 16:40:00,42.8,41.5,29.87,SW,215,7.0,8.0,95,0.00,,,0.20,Wunderground v.1.15,2013-01-28 21:40:00,
2013-01-28 16:45:00,42.9,41.6,29.88,WSW,254,8.0,8.0,95,0.00,,,0.20,Wunderground v.1.15,2013-01-28 21:45:00,
2013-01-28 16:50:00,43.0,41.7,29.88,SW,229,7.0,7.0,95,0.00,,,0.20,Wunderground v.1.15,2013-01-28 21:50:00,
2013-01-28 17:00:00,43.0,41.7,29.88,WSW,244,8.0,8.0,95,0.00,,,0.20,Wunderground v.1.15,2013-01-28 22:00:00,
2013-01-28 17:05:00,43.0,41.7,29.87,SW,228,8.0,8.0,95,0.00,,,0.20,Wunderground v.1.15,2013-01-28 22:05:00,
2013-01-28 17:10:00,43.1,41.8,29.87,WSW,253,6.0,7.0,95,0.00,,,0.20,Wunderground v.1.15,2013-01-28 22:10:00,
2013-01-28 17:15:00,43.2,42.1,29.87,West,262,7.0,7.0,96,0.00,,,0.20,Wunderground v.1.15,2013-01-28 22:15:00,
2013-01-28 17:20:00,43.1,41.8,29.88,WSW,239,8.0,8.0,95,0.00,,,0.20,Wunderground v.1.15,2013-01-28 22:20:00,
2013-01-28 17:25:00,42.9,41.8,29.88,West,263,6.0,8.0,96,0.00,,,0.20,Wunderground v.1.15,2013-01-28 22:25:00,
2013-01-28 17:30:00,42.9,41.8,29.88,SW,235,7.0,7.0,96,0.00,,,0.20,Wunderground v.1.15,2013-01-28 22:30:00,
2013-01-28 17:40:00,42.8,42.0,29.88,WSW,248,5.0,5.0,97,0.00,,,0.21,Wunderground v.1.15,2013-01-28 22:40:00,
2013-01-28 17:45:00,42.7,41.9,29.88,SW,234,4.0,5.0,97,0.00,,,0.21,Wunderground v.1.15,2013-01-28 22:45:00,
2013-01-28 17:50:00,42.8,42.0,29.88,SW,219,5.0,5.0,97,0.00,,,0.21,Wunderground v.1.15,2013-01-28 22:50:00,
2013-01-28 17:55:00,42.8,42.0,29.88,SW,232,5.0,8.0,97,0.00,,,0.21,Wunderground v.1.15,2013-01-28 22:55:00,
2013-01-28 18:00:00,42.9,42.1,29.88,SW,228,6.0,8.0,97,0.00,,,0.21,Wunderground v.1.15,2013-01-28 23:00:00,
2013-01-28 18:05:00,42.8,41.7,29.89,SW,235,6.0,8.0,96,0.00,,,0.21,Wunderground v.1.15,2013-01-28 23:05:00,
2013-01-28 18:15:00,42.8,42.0,29.89,SW,230,5.0,7.0,97,0.00,,,0.22,Wunderground v.1.15,2013-01-28 23:15:00,
2013-01-28 18:20:00,42.8,41.7,29.89,WSW,255,4.0,6.0,96,0.00,,,0.22,Wunderground v.1.15,2013-01-28 23:20:00,
2013-01-28 18:25:00,42.8,42.0,29.89,WSW,242,4.0,7.0,97,0.00,,,0.22,Wunderground v.1.15,2013-01-28 23:25:00,
2013-01-28 18:30:00,42.8,42.0,29.89,SW,229,4.0,4.0,97,0.00,,,0.22,Wunderground v.1.15,2013-01-28 23:30:00,
2013-01-28 18:35:00,42.8,42.0,29.89,WSW,249,4.0,8.0,97,0.00,,,0.22,Wunderground v.1.15,2013-01-28 23:35:00,
2013-01-28 18:40:00,42.8,42.0,29.89,WSW,256,3.0,3.0,97,0.00,,,0.22,Wunderground v.1.15,2013-01-28 23:40:00,
2013-01-28 18:45:00,42.7,41.9,29.90,SSW,207,3.0,5.0,97,0.00,,,0.22,Wunderground v.1.15,2013-01-28 23:45:00,
2013-01-28 18:54:00,42.8,42.0,29.90,West,271,4.0,4.0,97,0.00,,,0.22,Wunderground v.1.15,2013-01-28 23:54:00,
2013-01-28 19:00:00,42.8,42.3,29.90,SW,229,3.0,4.0,98,0.00,,,0.22,Wunderground v.1.15,2013-01-29 00:00:00,
2013-01-28 19:05:00,42.7,42.2,29.90,WSW,240,3.0,4.0,98,0.00,,,0.23,Wunderground v.1.15,2013-01-29 00:05:00,
2013-01-28 19:10:00,42.8,42.3,29.90,WSW,250,3.0,3.0,98,0.00,,,0.23,Wunderground v.1.15,2013-01-29 00:10:00,
2013-01-28 19:15:00,42.8,42.3,29.90,SW,232,3.0,8.0,98,0.00,,,0.23,Wunderground v.1.15,2013-01-29 00:15:00,
2013-01-28 19:20:00,42.9,42.4,29.90,SW,229,3.0,8.0,98,0.00,,,0.23,Wunderground v.1.15,2013-01-29 00:20:00,
2013-01-28 19:25:00,42.9,42.4,29.90,WSW,254,3.0,8.0,98,0.00,,,0.23,Wunderground v.1.15,2013-01-29 00:25:00,
2013-01-28 19:30:00,43.0,42.5,29.90,SW,227,3.0,5.0,98,0.00,,,0.23,Wunderground v.1.15,2013-01-29 00:30:00,
2013-01-28 19:40:00,43.1,42.6,29.90,West,267,4.0,4.0,98,0.00,,,0.24,Wunderground v.1.15,2013-01-29 00:40:00,
2013-01-28 19:45:00,43.1,42.6,29.90,West,266,4.0,4.0,98,0.00,,,0.24,Wunderground v.1.15,2013-01-29 00:45:00,
2013-01-28 19:50:00,43.1,42.6,29.90,WSW,244,3.0,4.0,98,0.00,,,0.24,Wunderground v.1.15,2013-01-29 00:50:00,
2013-01-28 19:55:00,43.2,42.7,29.90,West,263,3.0,4.0,98,0.00,,,0.24,Wunderground v.1.15,2013-01-29 00:55:00,
2013-01-28 20:00:00,43.7,43.4,29.90,West,279,5.0,5.0,99,0.00,,,0.24,Wunderground v.1.15,2013-01-29 01:00:00,
2013-01-28 20:05:00,44.1,43.8,29.90,West,259,7.0,12.0,99,0.00,,,0.24,Wunderground v.1.15,2013-01-29 01:05:00,
2013-01-28 20:10:00,44.4,43.9,29.90,West,265,9.0,9.0,98,0.00,,,0.24,Wunderground v.1.15,2013-01-29 01:10:00,
2013-01-28 20:20:00,44.5,43.7,29.91,West,261,13.0,16.0,97,0.00,,,0.24,Wunderground v.1.15,2013-01-29 01:20:00,
2013-01-28 20:25:00,44.5,43.7,29.91,West,272,14.0,16.0,97,0.00,,,0.24,Wunderground v.1.15,2013-01-29 01:25:00,
2013-01-28 20:30:00,44.2,43.4,29.91,West,277,15.0,15.0,97,0.00,,,0.24,Wunderground v.1.15,2013-01-29 01:30:00,
2013-01-28 20:35:00,43.9,43.1,29.91,West,278,15.0,15.0,97,0.00,,,0.24,Wunderground v.1.15,2013-01-29 01:35:00,
2013-01-28 20:40:00,43.7,42.9,29.91,West,261,14.0,15.0,97,0.00,,,0.24,Wunderground v.1.15,2013-01-29 01:40:00,
2013-01-28 20:45:00,43.5,42.7,29.92,West,265,14.0,15.0,97,0.00,,,0.24,Wunderground v.1.15,2013-01-29 01:45:00,
2013-01-28 20:55:00,43.0,42.5,29.92,WSW,253,14.0,14.0,98,0.00,,,0.24,Wunderground v.1.15,2013-01-29 01:55:00,
2013-01-28 21:00:00,42.8,42.3,29.93,West,269,13.0,14.0,98,0.00,,,0.24,Wunderground v.1.15,2013-01-29 02:00:00,
2013-01-28 21:05:00,42.5,42.0,29.93,WNW,292,12.0,14.0,98,0.00,,,0.24,Wunderground v.1.15,2013-01-29 02:05:00,
2013-01-28 21:10:00,42.4,41.9,29.93,West,269,12.0,12.0,98,0.00,,,0.24,Wunderground v.1.15,2013-01-29 02:10:00,
2013-01-28 21:15:00,42.3,41.8,29.92,West,277,10.0,12.0,98,0.00,,,0.24,Wunderground v.1.15,2013-01-29 02:15:00,
2013-01-28 21:20:00,42.1,41.6,29.93,West,269,11.0,11.0,98,0.00,,,0.24,Wunderground v.1.15,2013-01-29 02:20:00,
2013-01-28 21:25:00,41.9,41.4,29.93,West,265,11.0,11.0,98,0.00,,,0.24,Wunderground v.1.15,2013-01-29 02:25:00,
2013-01-28 21:35:00,41.8,41.3,29.93,West,261,11.0,14.0,98,0.00,,,0.24,Wunderground v.1.15,2013-01-29 02:35:00,
2013-01-28 21:40:00,41.6,41.1,29.93,WNW,288,11.0,11.0,98,0.00,,,0.24,Wunderground v.1.15,2013-01-29 02:40:00,
2013-01-28 21:45:00,41.5,41.0,29.93,WSW,242,10.0,12.0,98,0.00,,,0.24,Wunderground v.1.15,2013-01-29 02:45:00,
2013-01-28 21:50:00,41.5,41.0,29.94,WNW,292,10.0,13.0,98,0.00,,,0.24,Wunderground v.1.15,2013-01-29 02:50:00,
2013-01-28 21:55:00,41.5,41.0,29.94,West,271,11.0,13.0,98,0.00,,,0.24,Wunderground v.1.15,2013-01-29 02:55:00,
2013-01-28 22:00:00,41.4,40.6,29.94,West,262,9.0,9.0,97,0.00,,,0.24,Wunderground v.1.15,2013-01-29 03:00:00,
2013-01-28 22:10:00,41.2,40.4,29.95,West,277,8.0,8.0,97,0.00,,,0.24,Wunderground v.1.15,2013-01-29 03:10:00,
2013-01-28 22:15:00,41.1,40.3,29.95,West,262,7.0,8.0,97,0.00,,,0.24,Wunderground v.1.15,2013-01-29 03:15:00,
2013-01-28 22:20:00,40.9,40.1,29.95,West,275,7.0,7.0,97,0.00,,,0.24,Wunderground v.1.15,2013-01-29 03:20:00,
2013-01-28 22:25:00,40.8,40.0,29.95,WSW,254,6.0,10.0,97,0.00,,,0.25,Wunderground v.1.15,2013-01-29 03:25:00,
2013-01-28 22:30:00,40.8,40.0,29.95,WNW,300,6.0,6.0,97,0.00,,,0.25,Wunderground v.1.15,2013-01-29 03:30:00,
2013-01-28 22:35:00,40.7,39.9,29.95,West,281,5.0,6.0,97,0.00,,,0.25,Wunderground v.1.15,2013-01-29 03:35:00,
2013-01-28 22:40:00,40.6,39.8,29.96,WNW,287,5.0,5.0,97,0.00,,,0.25,Wunderground v.1.15,2013-01-29 03:40:00,
2013-01-28 22:50:00,40.5,39.7,29.97,WSW,250,6.0,6.0,97,0.00,,,0.25,Wunderground v.1.15,2013-01-29 03:50:00,
2013-01-28 22:55:00,40.4,39.6,29.97,West,271,6.0,9.0,97,0.00,,,0.25,Wunderground v.1.15,2013-01-29 03:55:00,
2013-01-28 23:00:00,40.4,39.6,29.97,West,269,5.0,5.0,97,0.00,,,0.25,Wunderground v.1.15,2013-01-29 04:00:00,
2013-01-28 23:05:00,40.4,39.6,29.97,West,281,6.0,7.0,97,0.00,,,0.25,Wunderground v.1.15,2013-01-29 04:05:00,
2013-01-28 23:10:00,40.2,39.4,29.97,WNW,285,6.0,6.0,97,0.00,,,0.25,Wunderground v.1.15,2013-01-29 04:10:00,
2013-01-28 23:15:00,40.2,39.4,29.98,SW,234,6.0,11.0,97,0.00,,,0.25,Wunderground v.1.15,2013-01-29 04:15:00,
2013-01-28 23:20:00,40.0,39.2,29.98,West,271,7.0,10.0,97,0.00,,,0.25,Wunderground v.1.15,2013-01-29 04:20:00,
2013-01-28 23:30:00,39.8,38.8,29.98,West,265,9.0,9.0,96,0.00,,,0.25,Wunderground v.1.15,2013-01-29 04:30:00,
2013-01-28 23:35:00,39.6,38.6,29.99,West,281,8.0,9.0,96,0.00,,,0.25,Wunderground v.1.15,2013-01-29 04:35:00,
2013-01-28 23:40:00,39.5,38.7,29.98,WNW,283,7.0,7.0,97,0.00,,,0.25,Wunderground v.1.15,2013-01-29 04:40:00,
2013-01-28 23:45:00,39.4,38.6,29.99,West,276,6.0,7.0,97,0.00,,,0.25,Wunderground v.1.15,2013-01-29 04:45:00,
2013-01-28 23:50:00,39.2,38.4,29.99,West,280,6.0,8.0,97,0.00,,,0.25,Wunderground v.1.15,2013-01-29 04:50:00,
2013-01-28 23:55:00,39.1,38.3,29.99,West,279,7.0,8.0,97,0.00,,,0.25,Wunderground v.1.15,2013-01-29 04:55:00,